Location: Borea
(45.6167°N, 23.0167°E)
Time: 15:41:55
(UTC+00:00)

FENGYUN 1C DEB - Pass Details

Date: 23 February 2024
Orbit: 561 x 661 km, 99.3° (Epoch: 16 April)

Event Time Altitude Azimuth Distance (km) Brightness Sun altitude
Rises 01:21:12 0° 35° (NE) 3,105 ? -40.8°
Reaches altitude 10° 01:25:09 10° 68° (ENE) 2,153 ? -40.2°
Enters shadow 01:26:41 12° 87° (E) 2,030 ? -40.0°
